Theta_e
331 330 329 329 329 330 329 328 326 324 323 322 321 319 318 318 317 317 317 318 317 316 316 316 316 315 314 312 312 311 310 309 307 306 307 307 306 305 304 303 303 304
330 330 330 330 329 328 329 328 325 324 322 321 320 319 318 317 316 317 316 316 317 315 314 314 314 313 312 311 309 308 308 307 306 307 305 305 304 304 303 302 302 302
330 329 329 329 328 327 327 326 325 324 321 320 319 318 317 317 315 315 315 316 315 313 313 313 313 312 311 310 309 309 306 305 305 305 305 303 303 302 301 301 301 301
329 329 329 329 328 327 326 324 323 321 319 318 317 317 317 316 315 314 314 317 313 312 312 312 312 312 310 308 308 307 306 305 305 305 304 303 303 302 301 301 302 301
329 329 329 329 328 327 325 323 321 320 318 318 317 317 316 315 313 313 314 313 312 311 311 311 310 310 309 308 307 305 305 304 304 304 303 302 301 302 301 302 300 300
329 329 329 329 327 325 324 323 321 320 318 317 316 317 315 314 313 312 313 312 311 310 310 310 310 310 309 307 306 306 305 304 303 303 302 301 301 301 301 300 300 299
328 328 328 328 326 325 324 323 321 320 318 318 317 316 315 313 312 312 312 311 310 310 310 309 309 308 308 306 306 305 304 304 303 303 302 301 302 300 300 299 300 298
328 328 328 327 325 324 324 322 321 319 318 317 316 316 315 313 311 311 311 310 309 309 309 308 308 308 307 306 305 304 303 303 302 302 301 300 300 299 299 300 299 298
328 328 327 326 325 324 323 322 320 319 318 317 317 316 315 313 311 310 309 309 309 309 308 307 307 306 306 305 304 303 303 302 302 301 301 300 300 299 299 299 298 299
329 328 327 325 324 324 323 322 321 319 319 318 317 316 314 313 311 309 308 308 308 307 307 306 306 305 305 305 304 303 303 302 301 301 301 300 300 299 298 299 298 298
329 328 327 326 325 324 323 322 321 319 319 318 316 314 313 311 310 309 308 307 307 306 306 305 305 305 304 304 304 304 303 302 301 300 300 300 300 299 301 299 299 299
329 328 327 326 325 324 323 322 321 319 318 318 316 314 312 311 309 308 308 307 307 306 306 305 305 305 304 304 303 303 303 302 302 301 300 299 299 300 300 299 299 298
329 328 328 327 325 325 324 322 320 319 318 317 316 314 312 310 309 308 308 307 306 306 305 305 305 304 304 303 303 302 302 302 301 300 300 300 299 300 299 299 298 298
329 329 328 327 326 325 323 322 320 319 318 317 316 313 312 311 309 308 308 307 306 306 305 305 304 303 303 303 303 302 302 301 301 300 300 299 300 300 299 299 299 299
329 329 328 328 326 325 324 322 320 319 318 316 315 314 313 311 310 309 307 306 306 305 305 305 304 303 303 302 302 301 301 301 301 301 300 300 299 299 299 299 299 298
330 329 328 327 326 325 324 322 320 319 318 316 315 314 312 311 309 308 307 306 305 305 305 304 304 304 305 304 304 302 301 301 301 300 300 300 300 299 298 298 298 298
329 328 328 327 326 325 323 321 320 319 317 316 315 314 312 311 310 308 307 306 305 305 304 304 304 304 301 297 298 301 302 301 301 300 300 301 300 299 298 297 297 297
329 328 327 326 326 324 323 321 320 318 317 316 315 313 312 311 309 309 307 306 305 305 304 304 304 303 297 296 297 297 301 302 301 300 301 300 300 299 298 298 298 299
328 327 326 325 325 323 322 320 319 317 316 315 314 313 312 310 310 309 307 306 306 304 304 304 304 299 296 296 296 296 297 301 301 301 301 300 299 298 298 299 300 301
328 327 326 325 324 323 321 320 318 317 316 315 314 313 311 310 310 308 307 306 305 305 304 304 304 299 295 296 296 295 295 298 301 301 301 300 299 298 299 300 300 300
328 327 326 325 323 322 320 319 318 316 315 315 313 312 311 310 309 308 307 306 305 305 304 303 304 298 295 295 295 295 294 298 302 302 301 299 299 299 300 300 300 299
327 326 325 324 322 321 320 319 318 317 315 314 313 312 311 311 309 308 306 305 305 304 304 303 304 296 294 294 294 294 295 303 301 301 300 299 299 299 300 300 299 298
327 326 324 323 322 320 319 318 317 316 315 314 312 311 310 310 308 308 307 305 304 304 304 303 303 297 294 294 294 293 297 302 301 301 300 298 298 299 299 298 298 298
327 326 324 322 321 319 318 318 317 316 315 313 312 310 310 309 308 307 307 306 304 304 304 303 302 298 294 294 294 294 299 302 301 300 299 298 298 298 298 298 298 301
327 325 324 322 320 319 318 317 316 316 314 313 313 312 310 310 308 307 306 305 305 305 306 304 302 299 294 294 294 294 299 303 302 301 299 299 298 298 298 298 297 301
326 324 323 322 320 319 318 317 316 315 313 312 312 312 310 309 308 308 306 305 305 305 305 304 302 301 297 293 294 294 297 303 302 301 300 299 298 298 297 297 297 297
Wind_Speed
11 10 11 10 10 9 10 10 8 9 9 7 8 7 8 7 7 7 7 6 6 7 6 6 6 6 5 5 4 4 3 4 4 5 5 6 5 7 6 7 6 6
12 11 9 9 8 8 9 10 10 10 9 8 7 8 7 7 8 8 8 7 6 6 6 6 6 7 7 6 6 5 4 4 5 3 6 6 6 6 6 7 6 5
11 11 11 12 10 10 10 9 9 8 8 8 8 8 7 7 8 7 7 7 7 6 6 6 6 7 7 6 6 6 5 5 5 4 5 6 5 6 5 6 6 6
12 12 11 11 10 11 10 9 8 7 7 8 8 7 7 7 7 8 7 6 6 6 6 6 6 6 6 6 6 5 5 5 5 6 6 4 4 5 6 6 6 5
12 10 9 9 9 10 10 11 10 9 9 8 8 8 8 8 8 7 7 6 6 6 6 6 6 6 6 6 6 6 5 5 5 5 6 6 4 5 5 6 7 7
10 11 10 10 10 11 10 11 11 10 10 10 11 9 8 9 9 9 8 8 6 7 6 6 6 6 6 6 5 5 6 6 5 6 6 7 6 4 5 6 7 7
12 11 12 10 10 11 11 10 10 10 10 10 8 9 9 9 9 9 8 8 8 7 7 7 7 7 6 6 6 6 5 6 6 6 7 5 6 6 4 6 6 7
12 10 11 10 11 11 11 10 10 10 10 9 11 9 10 10 9 8 8 8 8 8 7 7 7 7 7 6 6 6 6 5 6 6 6 6 6 7 5 4 6 7
11 11 11 12 12 10 11 11 10 10 10 11 10 9 8 9 9 9 9 8 8 8 8 7 7 7 7 7 7 8 8 6 6 7 8 8 7 7 7 6 6 6
13 11 12 12 12 11 12 11 11 10 10 10 9 8 9 7 8 9 9 9 9 8 8 8 7 7 7 7 8 8 8 8 7 6 7 7 8 7 7 6 7 7
14 13 13 13 12 10 12 11 11 11 10 11 10 9 9 9 7 8 9 9 9 9 8 8 8 8 8 7 6 6 8 8 7 7 7 7 7 7 6 7 7 7
14 13 14 14 12 11 12 12 11 11 11 9 11 11 10 9 10 9 9 10 8 9 8 8 8 8 8 8 7 7 6 6 7 7 7 7 7 6 7 6 7 7
15 14 13 13 12 11 10 10 11 11 11 11 10 11 12 10 9 10 8 9 8 8 9 9 8 7 7 7 7 7 7 8 7 6 6 6 6 7 6 6 6 7
14 13 13 12 11 10 11 11 11 11 11 10 10 11 11 11 11 10 8 7 8 8 8 8 8 7 7 7 7 7 7 7 8 8 7 6 6 6 6 6 6 7
12 12 11 11 11 11 11 11 11 10 10 11 10 10 8 9 9 9 9 8 7 7 8 7 7 7 7 8 8 7 7 8 8 8 8 8 6 6 5 6 6 6
13 12 12 12 12 12 11 11 10 10 11 11 11 10 9 9 9 8 9 9 9 8 7 7 6 5 7 12 9 8 8 6 6 7 8 8 8 7 6 5 6 6
12 12 13 13 13 11 11 11 11 10 10 10 10 10 10 9 9 9 8 8 9 9 8 7 6 5 11 13 12 12 9 8 8 7 7 8 8 9 8 7 5 5
13 13 13 13 12 12 12 11 11 11 11 10 10 10 9 8 9 10 9 8 7 8 8 7 7 8 14 13 13 13 11 9 7 7 7 7 7 8 7 7 7 6
13 14 14 13 13 12 11 11 11 11 11 10 11 10 9 10 10 9 9 8 8 9 8 7 6 10 14 14 14 14 13 10 7 7 8 7 7 8 8 8 8 8
14 14 14 13 13 13 12 12 12 12 11 9 9 9 9 9 9 10 9 9 9 9 8 7 7 10 14 14 14 14 13 10 7 8 8 8 8 8 8 8 9 8
14 14 14 13 13 13 13 13 13 10 11 10 10 11 11 10 10 9 8 8 8 8 8 8 7 12 14 15 14 14 13 10 7 7 7 7 8 8 9 9 9 8
15 14 14 13 13 13 13 13 12 12 11 9 9 8 8 8 7 8 9 9 9 9 8 8 7 13 14 15 14 14 14 8 7 8 8 8 7 7 7 7 8 8
15 14 14 14 14 14 13 13 12 11 10 9 10 9 9 9 9 9 9 9 10 9 10 8 7 12 15 15 15 15 11 7 7 7 7 8 8 8 7 8 8 7
14 15 14 14 13 14 13 12 11 10 11 10 11 11 10 9 9 8 8 9 11 11 11 10 8 10 15 15 16 17 13 9 7 7 7 7 6 7 6 6 8 13
13 14 14 14 13 13 12 13 12 11 10 10 10 11 11 10 9 9 8 7 9 10 11 10 8 10 15 16 17 17 13 8 8 7 7 7 6 7 6 5 6 7
13 14 14 14 13 12 12 12 11 10 11 11 10 9 10 10 9 9 10 9 8 7 8 9 9 8 12 17 17 17 16 10 7 8 7 7 6 6 7 6 6 6
Wind_Direction
179 178 177 177 176 172 168 167 173 177 179 165 164 160 159 151 154 157 160 158 160 154 154 150 140 131 128 135 124 120 139 166 133 142 147 145 150 156 162 163 165 169
183 178 175 173 168 166 169 168 172 176 171 161 161 158 157 149 155 158 160 159 154 148 142 137 137 137 143 138 136 132 128 140 129 124 137 143 152 150 155 157 151 139
180 178 176 176 171 166 165 167 171 171 158 160 152 157 152 153 151 158 161 160 152 144 143 145 148 149 144 136 127 133 135 144 138 132 128 142 140 144 143 140 133 150
186 183 178 175 166 162 158 156 161 146 139 149 164 158 153 155 154 156 162 158 146 145 146 153 151 131 125 121 126 124 133 134 137 133 117 98 116 128 137 130 124 117
183 181 179 171 164 158 157 160 160 159 160 154 141 155 152 153 158 158 158 151 148 148 153 153 140 135 131 134 141 137 139 131 135 135 132 129 133 135 143 133 131 126
182 179 176 171 166 160 163 164 163 159 152 155 171 157 157 157 160 161 159 157 158 156 157 149 143 134 134 138 142 147 142 134 146 144 138 137 133 130 136 135 130 129
181 177 176 167 163 165 161 162 158 158 164 170 147 159 157 160 162 163 161 160 159 164 163 159 150 146 149 151 145 144 141 140 144 147 138 133 130 121 118 134 134 132
179 176 169 165 164 165 163 160 158 160 161 156 165 164 164 162 160 157 159 159 163 167 164 159 159 155 155 149 151 147 138 146 152 149 140 135 137 137 144 143 139 133
173 175 169 167 166 166 164 161 159 158 162 166 168 163 163 160 157 157 159 161 165 169 165 162 161 156 157 157 158 155 151 154 158 153 149 146 148 153 154 141 133 135
177 173 170 171 171 170 165 163 160 161 164 167 164 153 152 150 154 156 156 165 168 169 171 160 155 156 157 166 161 157 153 149 150 156 155 154 154 153 150 148 148 137
178 173 174 175 173 169 165 162 161 158 163 162 156 159 158 152 156 157 160 166 171 173 168 165 163 159 159 157 155 155 153 151 152 150 154 152 154 154 154 152 152 153
178 176 177 176 172 168 165 163 160 160 160 160 161 158 158 163 160 166 170 172 169 168 165 165 164 166 166 163 152 145 140 145 147 149 146 145 147 149 149 152 151 146
178 178 174 174 171 166 161 160 162 161 160 159 162 160 161 163 167 166 170 165 164 160 165 164 164 162 161 155 148 146 146 143 144 140 140 142 150 150 147 146 143 142
179 173 171 171 166 163 163 163 161 162 162 154 153 158 165 166 165 167 162 161 160 162 161 159 158 157 152 153 151 153 150 151 152 148 144 144 143 145 143 144 147 150
172 169 166 164 164 164 164 165 164 161 157 155 161 163 164 164 158 154 152 153 152 156 158 159 161 164 164 160 155 155 156 155 157 152 150 146 142 140 142 143 146 157
168 165 165 164 165 168 168 162 160 160 159 159 163 163 159 154 153 156 158 159 157 158 159 162 167 163 169 166 163 161 162 156 152 153 152 150 148 146 146 149 153 158
167 167 164 167 168 165 163 162 162 161 161 163 162 159 158 157 155 158 162 163 163 162 165 168 165 167 166 168 168 162 157 157 159 158 158 158 157 155 154 158 160 169
169 166 166 166 162 165 164 162 159 160 164 166 159 157 157 155 162 167 165 162 162 163 166 168 169 169 165 170 170 168 165 161 159 158 161 162 155 156 153 152 160 171
165 166 167 165 163 159 160 158 160 163 165 163 163 160 153 163 170 162 166 164 163 166 169 168 170 168 169 172 174 174 169 157 157 155 153 158 159 158 158 162 164 171
166 166 168 167 159 157 160 163 164 170 167 163 155 154 162 164 166 169 164 167 169 168 166 168 172 174 172 173 176 176 168 156 158 160 161 160 162 166 168 168 171 170
166 167 165 163 160 159 161 165 169 165 164 163 160 163 164 168 167 170 171 167 164 162 162 173 185 172 174 174 177 174 168 157 154 155 155 164 172 172 173 176 174 177
166 166 162 160 159 161 164 167 169 166 166 163 159 161 164 159 165 163 162 167 168 165 165 181 184 173 172 173 174 173 165 158 157 160 164 168 169 174 178 178 176 177
166 163 161 161 161 163 167 166 165 164 164 158 156 161 160 167 169 170 172 169 166 170 177 181 180 175 172 171 172 169 164 161 162 156 162 169 173 180 183 185 183 181
165 161 161 162 164 166 165 164 163 162 165 164 163 161 167 174 167 166 170 173 171 177 183 179 181 173 172 172 170 172 172 164 161 159 165 173 173 185 187 191 196 193
161 160 160 163 165 162 161 162 166 169 165 168 169 166 169 168 165 166 168 175 185 185 178 173 167 173 176 172 174 177 173 161 160 158 159 179 179 186 199 198 205 212
157 161 163 162 160 159 163 168 165 160 163 169 169 167 163 167 166 167 171 183 182 174 176 176 167 170 180 176 177 178 178 168 167 159 178 179 180 179 181 210 211 216